TimeCST,TemperatureF,Dew PointF,Humidity,Sea Level PressureIn,VisibilityMPH,Wind Direction,Wind SpeedMPH,Gust SpeedMPH,PrecipitationIn,Events,Conditions,WindDirDegrees,DateUTC
12:52 AM,24.1,19.0,81,30.16,10.0,Calm,Calm,-,N/A,,Partly Cloudy,0,2013-11-06 06:52:00
1:52 AM,21.0,19.0,92,30.15,10.0,SE,3.5,-,N/A,,Overcast,140,2013-11-06 07:52:00
2:52 AM,23.0,19.9,88,30.14,10.0,Calm,Calm,-,N/A,,Overcast,0,2013-11-06 08:52:00
3:52 AM,24.1,21.9,91,30.12,10.0,Calm,Calm,-,N/A,,Overcast,0,2013-11-06 09:52:00
4:52 AM,26.1,23.0,88,30.12,10.0,SSW,5.8,-,N/A,,Overcast,200,2013-11-06 10:52:00
5:52 AM,27.0,23.0,85,30.12,10.0,SSW,3.5,-,N/A,,Overcast,210,2013-11-06 11:52:00
6:52 AM,27.0,23.0,85,30.12,10.0,SSW,6.9,-,N/A,,Overcast,200,2013-11-06 12:52:00
7:52 AM,24.1,21.0,88,30.14,10.0,Calm,Calm,-,N/A,,Mostly Cloudy,0,2013-11-06 13:52:00
8:52 AM,28.0,25.0,88,30.14,10.0,SW,4.6,-,N/A,,Clear,230,2013-11-06 14:52:00
9:52 AM,30.9,25.0,79,30.14,10.0,West,5.8,-,N/A,,Overcast,260,2013-11-06 15:52:00
10:52 AM,34.0,25.0,70,30.14,10.0,WNW,6.9,-,N/A,,Overcast,290,2013-11-06 16:52:00
11:52 AM,37.9,25.0,60,30.14,10.0,West,6.9,-,N/A,,Partly Cloudy,270,2013-11-06 17:52:00
12:52 PM,41.0,25.0,53,30.11,10.0,Variable,3.5,-,N/A,,Clear,0,2013-11-06 18:52:00
1:52 PM,44.1,23.0,43,30.11,10.0,Calm,Calm,-,N/A,,Clear,0,2013-11-06 19:52:00
2:52 PM,46.0,18.0,33,30.11,10.0,NW,6.9,-,N/A,,Clear,320,2013-11-06 20:52:00
3:52 PM,45.0,18.0,34,30.12,10.0,WSW,8.1,-,N/A,,Clear,240,2013-11-06 21:52:00
4:52 PM,42.1,18.0,38,30.13,10.0,South,4.6,-,N/A,,Clear,190,2013-11-06 22:52:00
5:52 PM,34.0,19.0,54,30.15,10.0,SSW,3.5,-,N/A,,Partly Cloudy,210,2013-11-06 23:52:00
6:52 PM,37.0,21.0,52,30.18,10.0,NW,12.7,-,N/A,,Clear,320,2013-11-07 00:52:00
7:52 PM,34.0,21.9,61,30.22,10.0,NNW,12.7,-,N/A,,Clear,330,2013-11-07 01:52:00
8:52 PM,30.0,21.9,72,30.25,10.0,NW,11.5,-,N/A,,Clear,320,2013-11-07 02:52:00
9:52 PM,28.0,21.0,75,30.27,10.0,NW,10.4,-,N/A,,Clear,310,2013-11-07 03:52:00
10:52 PM,25.0,19.9,81,30.30,10.0,WNW,8.1,-,N/A,,Clear,300,2013-11-07 04:52:00
11:52 PM,23.0,19.0,85,30.31,10.0,West,6.9,-,N/A,,Clear,270,2013-11-07 05:52:00